Darstellungsparameter: Aktuell verwendete Einstellungen:
Skalierung der Graphiken ... ?
xyx+y,   Skalierungsfaktor:      Skalierung: Modus: x, Faktor: 1
Darstellungszeitraum ... ?
Vom - - bis: - -   Zeitraum: 27.01.2021 - 27.01.2021
Min/Max/Avg-Anzeige ... ?
Zeige MMA aktuell
Zeige MMA Monat
Zeige MMA alles
Zeige --A aktuell
Zeige --A Monat
Zeige --A alles
Keine MMA-Anzeige
MMA:
Average (ber die Originaldaten)
MMA-Basis: 27.01.2021 - 27.01.2021
Quicknavigation für Darstellung... ?
Tage:      1T, 2T, 3T, 5T -1T -2T -3T -5T +1T +2T +3T +5T
Wochen: 1W, 2W, 3W -1W -2W -3W +1W +2W +3W
Monate: 1M, 3M, 6M -1M -3M -6M +1M +3M +6M
Jahre:    1J, 3J, 5J, 10J -1J -3J -5J -10J +1J +3J +5J +10J
Nutze für die Darstellung ... ?
Originaldaten oder Mittelwerte auf ...
Stundenbasis Tagesbasis Wochenbasis
Monatsbasis Jahresbasis      Datenbasis: Original-Daten
Darstellen als:
Statistik (Auto) Statistik J:M      Darstellung:
Zur Graphik,    zurück zur Übersicht aller Sensoren.
 
Tabellarische Datenbersicht: ?
 
Sensor: Nr:Datum:Temp:Abs-Feuchte:Windchill:Wind:
Aussen-T/F 1 27-01-2021 00:00:00 2.2 C 4.9 g/m*3 0.36 C 6.4 km/h
2 27-01-2021 00:05:00 2.3 C 4.93 g/m*3 -0.49 C 9.7 km/h
3 27-01-2021 00:10:00 2.2 C 4.9 g/m*3 2.2 C 1.6 km/h
4 27-01-2021 00:15:00 2.2 C 4.9 g/m*3 2.2 C 0 km/h
5 27-01-2021 00:20:00 2.2 C 4.9 g/m*3 2.2 C 0 km/h
6 27-01-2021 00:25:00 2.1 C 4.87 g/m*3 2.1 C 1.6 km/h
7 27-01-2021 00:30:00 2.1 C 4.87 g/m*3 2.1 C 3.2 km/h
8 27-01-2021 00:35:00 2 C 4.83 g/m*3 2 C 0 km/h
9 27-01-2021 00:40:00 1.9 C 4.8 g/m*3 1.9 C 0 km/h
10 27-01-2021 00:45:00 1.8 C 4.77 g/m*3 1.8 C 1.6 km/h
11 27-01-2021 00:50:00 1.7 C 4.79 g/m*3 1.7 C 1.6 km/h
12 27-01-2021 00:55:00 1.7 C 4.74 g/m*3 1.7 C 3.2 km/h
13 27-01-2021 01:00:00 1.6 C 4.76 g/m*3 1.6 C 1.6 km/h
14 27-01-2021 01:05:00 1.6 C 4.76 g/m*3 1.6 C 3.2 km/h
15 27-01-2021 01:10:00 1.5 C 4.73 g/m*3 1.5 C 4.8 km/h
16 27-01-2021 01:15:00 1.4 C 4.69 g/m*3 1.4 C 3.2 km/h
17 27-01-2021 01:20:00 1.4 C 4.69 g/m*3 1.4 C 3.2 km/h
18 27-01-2021 01:25:00 1.4 C 4.69 g/m*3 1.4 C 1.6 km/h
19 27-01-2021 01:30:00 1.3 C 4.72 g/m*3 1.3 C 3.2 km/h
20 27-01-2021 01:35:00 1.3 C 4.66 g/m*3 1.3 C 1.6 km/h
21 27-01-2021 01:40:00 1.3 C 4.72 g/m*3 1.3 C 0 km/h
22 27-01-2021 01:45:00 1.2 C 4.68 g/m*3 1.2 C 0 km/h
23 27-01-2021 01:50:00 1.3 C 4.72 g/m*3 1.3 C 1.6 km/h
24 27-01-2021 01:55:00 1.3 C 4.72 g/m*3 1.3 C 4.8 km/h
25 27-01-2021 02:00:00 1.2 C 4.68 g/m*3 1.2 C 0 km/h
Sensor: Nr:Datum:Temp:Abs-Feuchte:Windchill:Wind:
Aussen-T/F 26 27-01-2021 02:05:00 1.2 C 4.68 g/m*3 1.2 C 1.6 km/h
27 27-01-2021 02:10:00 1.1 C 4.65 g/m*3 1.1 C 1.6 km/h
28 27-01-2021 02:15:00 1.1 C 4.65 g/m*3 1.1 C 1.6 km/h
29 27-01-2021 02:20:00 1.1 C 4.65 g/m*3 1.1 C 1.6 km/h
30 27-01-2021 02:25:00 1 C 4.62 g/m*3 1 C 1.6 km/h
31 27-01-2021 02:30:00 1 C 4.67 g/m*3 1 C 3.2 km/h
32 27-01-2021 02:35:00 0.9 C 4.59 g/m*3 0.9 C 0 km/h
33 27-01-2021 02:40:00 0.9 C 4.64 g/m*3 0.9 C 1.6 km/h
34 27-01-2021 02:45:00 0.9 C 4.64 g/m*3 0.9 C 0 km/h
35 27-01-2021 02:50:00 0.9 C 4.64 g/m*3 0.9 C 1.6 km/h
36 27-01-2021 02:55:00 0.9 C 4.64 g/m*3 0.9 C 3.2 km/h
37 27-01-2021 03:00:00 0.9 C 4.64 g/m*3 0.9 C 0 km/h
38 27-01-2021 03:05:00 1 C 4.67 g/m*3 1 C 0 km/h
39 27-01-2021 03:10:00 1 C 4.67 g/m*3 1 C 0 km/h
40 27-01-2021 03:15:00 1 C 4.67 g/m*3 1 C 1.6 km/h
41 27-01-2021 03:20:00 1 C 4.67 g/m*3 1 C 0 km/h
42 27-01-2021 03:25:00 1.1 C 4.76 g/m*3 1.1 C 3.2 km/h
43 27-01-2021 03:30:00 1.1 C 4.76 g/m*3 1.1 C 3.2 km/h
44 27-01-2021 03:35:00 1.1 C 4.76 g/m*3 1.1 C 1.6 km/h
45 27-01-2021 03:40:00 1.1 C 4.76 g/m*3 1.1 C 0 km/h
46 27-01-2021 03:45:00 1.1 C 4.76 g/m*3 1.1 C 0 km/h
47 27-01-2021 03:50:00 1.1 C 4.76 g/m*3 1.1 C 0 km/h
48 27-01-2021 03:55:00 1.1 C 4.76 g/m*3 1.1 C 0 km/h
49 27-01-2021 04:00:00 1.1 C 4.76 g/m*3 1.1 C 0 km/h
50 27-01-2021 04:05:00 1.1 C 4.76 g/m*3 1.1 C 1.6 km/h
Sensor: Nr:Datum:Temp:Abs-Feuchte:Windchill:Wind:
Aussen-T/F 51 27-01-2021 04:10:00 1.2 C 4.79 g/m*3 1.2 C 3.2 km/h
52 27-01-2021 04:15:00 1.2 C 4.79 g/m*3 1.2 C 1.6 km/h
53 27-01-2021 04:20:00 1.2 C 4.74 g/m*3 1.2 C 0 km/h
54 27-01-2021 04:25:00 1.2 C 4.74 g/m*3 -0.8 C 6.4 km/h
55 27-01-2021 04:30:00 1.3 C 4.72 g/m*3 -2.41 C 12.9 km/h
56 27-01-2021 04:35:00 1.6 C 4.76 g/m*3 -0.89 C 8.1 km/h
57 27-01-2021 04:40:00 1.7 C 4.79 g/m*3 -0.77 C 8.1 km/h
58 27-01-2021 04:45:00 1.8 C 4.82 g/m*3 -0.1 C 6.4 km/h
59 27-01-2021 04:50:00 1.8 C 4.82 g/m*3 -1.09 C 9.7 km/h
60 27-01-2021 04:55:00 1.8 C 4.82 g/m*3 1.8 C 3.2 km/h
61 27-01-2021 05:00:00 1.8 C 4.82 g/m*3 1.8 C 1.6 km/h
62 27-01-2021 05:05:00 1.8 C 4.82 g/m*3 -0.65 C 8.1 km/h
63 27-01-2021 05:10:00 1.8 C 4.82 g/m*3 -0.1 C 6.4 km/h
64 27-01-2021 05:15:00 1.8 C 4.82 g/m*3 1.8 C 4.8 km/h
65 27-01-2021 05:20:00 1.8 C 4.82 g/m*3 -0.1 C 6.4 km/h
66 27-01-2021 05:25:00 1.7 C 4.79 g/m*3 1.7 C 1.6 km/h
67 27-01-2021 05:30:00 1.8 C 4.82 g/m*3 -1.09 C 9.7 km/h
68 27-01-2021 05:35:00 1.8 C 4.82 g/m*3 1.8 C 3.2 km/h
69 27-01-2021 05:40:00 1.8 C 4.82 g/m*3 1.8 C 3.2 km/h
70 27-01-2021 05:45:00 1.8 C 4.88 g/m*3 1.8 C 1.6 km/h
71 27-01-2021 05:50:00 1.8 C 4.88 g/m*3 1.8 C 4.8 km/h
72 27-01-2021 05:55:00 1.8 C 4.88 g/m*3 -0.65 C 8.1 km/h
73 27-01-2021 06:00:00 1.8 C 4.88 g/m*3 -0.1 C 6.4 km/h
74 27-01-2021 06:05:00 1.8 C 4.88 g/m*3 -0.1 C 6.4 km/h
75 27-01-2021 06:10:00 1.7 C 4.9 g/m*3 1.7 C 3.2 km/h
Sensor: Nr:Datum:Temp:Abs-Feuchte:Windchill:Wind:
Aussen-T/F 76 27-01-2021 06:15:00 1.7 C 4.9 g/m*3 1.7 C 3.2 km/h
77 27-01-2021 06:20:00 1.7 C 4.9 g/m*3 1.7 C 0 km/h
78 27-01-2021 06:25:00 1.7 C 4.95 g/m*3 1.7 C 1.6 km/h
79 27-01-2021 06:30:00 1.6 C 4.92 g/m*3 1.6 C 0 km/h
80 27-01-2021 06:35:00 1.6 C 4.92 g/m*3 1.6 C 4.8 km/h
81 27-01-2021 06:40:00 1.5 C 4.89 g/m*3 1.5 C 0 km/h
82 27-01-2021 06:45:00 1.5 C 4.89 g/m*3 1.5 C 0 km/h
83 27-01-2021 06:50:00 1.4 C 4.85 g/m*3 1.4 C 0 km/h
84 27-01-2021 06:55:00 1.4 C 4.91 g/m*3 1.4 C 0 km/h
85 27-01-2021 07:00:00 1.4 C 4.91 g/m*3 1.4 C 0 km/h
86 27-01-2021 07:05:00 1.3 C 4.87 g/m*3 1.3 C 0 km/h
87 27-01-2021 07:10:00 1.3 C 4.87 g/m*3 1.3 C 0 km/h
88 27-01-2021 07:15:00 1.3 C 4.87 g/m*3 1.3 C 0 km/h
89 27-01-2021 07:20:00 1.3 C 4.87 g/m*3 1.3 C 0 km/h
90 27-01-2021 07:25:00 1.3 C 4.93 g/m*3 1.3 C 0 km/h
91 27-01-2021 07:30:00 1.3 C 4.93 g/m*3 1.3 C 0 km/h
92 27-01-2021 07:35:00 1.3 C 4.93 g/m*3 1.3 C 0 km/h
93 27-01-2021 07:40:00 1.3 C 4.93 g/m*3 1.3 C 0 km/h
94 27-01-2021 07:45:00 1.3 C 4.93 g/m*3 1.3 C 0 km/h
95 27-01-2021 07:50:00 1.3 C 4.93 g/m*3 1.3 C 0 km/h
96 27-01-2021 07:55:00 1.2 C 4.89 g/m*3 1.2 C 0 km/h
97 27-01-2021 08:00:00 1.3 C 4.93 g/m*3 1.3 C 4.8 km/h
98 27-01-2021 08:05:00 1.3 C 4.98 g/m*3 1.3 C 3.2 km/h
99 27-01-2021 08:10:00 1.3 C 4.98 g/m*3 1.3 C 1.6 km/h
100 27-01-2021 08:15:00 1.3 C 4.98 g/m*3 1.3 C 4.8 km/h
Sensor: Nr:Datum:Temp:Abs-Feuchte:Windchill:Wind:
Aussen-T/F 101 27-01-2021 08:20:00 1.3 C 4.98 g/m*3 1.3 C 0 km/h
102 27-01-2021 08:25:00 1.3 C 4.98 g/m*3 1.3 C 0 km/h
103 27-01-2021 08:30:00 1.3 C 4.98 g/m*3 1.3 C 3.2 km/h
104 27-01-2021 08:35:00 1.3 C 4.98 g/m*3 1.3 C 0 km/h
105 27-01-2021 08:40:00 1.3 C 4.98 g/m*3 1.3 C 0 km/h
106 27-01-2021 08:45:00 1.3 C 4.98 g/m*3 1.3 C 4.8 km/h
107 27-01-2021 08:50:00 1.3 C 4.98 g/m*3 1.3 C 0 km/h
108 27-01-2021 08:55:00 1.3 C 4.98 g/m*3 1.3 C 0 km/h
109 27-01-2021 09:00:00 1.3 C 4.98 g/m*3 -0.68 C 6.4 km/h
110 27-01-2021 09:05:00 1.4 C 5.01 g/m*3 -0.56 C 6.4 km/h
111 27-01-2021 09:10:00 1.4 C 5.01 g/m*3 1.4 C 1.6 km/h
112 27-01-2021 09:15:00 1.4 C 5.01 g/m*3 1.4 C 0 km/h
113 27-01-2021 09:20:00 1.5 C 5.05 g/m*3 1.5 C 1.6 km/h
114 27-01-2021 09:25:00 1.5 C 5.05 g/m*3 1.5 C 3.2 km/h
115 27-01-2021 09:30:00 1.6 C 5.08 g/m*3 1.6 C 3.2 km/h
116 27-01-2021 09:35:00 1.7 C 5.12 g/m*3 1.7 C 1.6 km/h
117 27-01-2021 09:40:00 1.7 C 5.12 g/m*3 1.7 C 0 km/h
118 27-01-2021 09:45:00 1.7 C 5.12 g/m*3 1.7 C 3.2 km/h
119 27-01-2021 09:50:00 1.7 C 5.12 g/m*3 1.7 C 1.6 km/h
120 27-01-2021 09:55:00 1.7 C 5.12 g/m*3 1.7 C 1.6 km/h
121 27-01-2021 10:00:00 1.7 C 5.12 g/m*3 1.7 C 1.6 km/h
122 27-01-2021 10:05:00 1.7 C 5.12 g/m*3 1.7 C 0 km/h
123 27-01-2021 10:10:00 1.7 C 5.12 g/m*3 1.7 C 0 km/h
124 27-01-2021 10:15:00 1.6 C 5.08 g/m*3 1.6 C 0 km/h
125 27-01-2021 10:20:00 1.6 C 5.08 g/m*3 1.6 C 0 km/h
Sensor: Nr:Datum:Temp:Abs-Feuchte:Windchill:Wind:
Aussen-T/F 126 27-01-2021 10:25:00 1.6 C 5.08 g/m*3 1.6 C 0 km/h
127 27-01-2021 10:30:00 1.6 C 5.14 g/m*3 1.6 C 0 km/h
128 27-01-2021 10:35:00 1.7 C 5.17 g/m*3 1.7 C 0 km/h
129 27-01-2021 10:40:00 1.7 C 5.17 g/m*3 1.7 C 0 km/h
130 27-01-2021 10:45:00 1.7 C 5.17 g/m*3 1.7 C 0 km/h
131 27-01-2021 10:50:00 1.8 C 5.21 g/m*3 1.8 C 0 km/h
132 27-01-2021 10:55:00 1.8 C 5.21 g/m*3 1.8 C 1.6 km/h
133 27-01-2021 11:00:00 1.8 C 5.21 g/m*3 1.8 C 0 km/h
134 27-01-2021 11:05:00 1.8 C 5.21 g/m*3 1.8 C 0 km/h
135 27-01-2021 11:10:00 1.8 C 5.21 g/m*3 -0.65 C 8.1 km/h
136 27-01-2021 11:15:00 1.9 C 5.24 g/m*3 -0.97 C 9.7 km/h
137 27-01-2021 11:20:00 2.1 C 5.31 g/m*3 2.1 C 4.8 km/h
138 27-01-2021 11:25:00 2.1 C 5.31 g/m*3 2.1 C 3.2 km/h
139 27-01-2021 11:30:00 2.2 C 5.35 g/m*3 -0.61 C 9.7 km/h
140 27-01-2021 11:35:00 2.4 C 5.42 g/m*3 0.05 C 8.1 km/h
141 27-01-2021 11:40:00 2.5 C 5.46 g/m*3 2.5 C 4.8 km/h
142 27-01-2021 11:45:00 2.6 C 5.5 g/m*3 2.6 C 4.8 km/h
143 27-01-2021 11:50:00 2.6 C 5.5 g/m*3 0.82 C 6.4 km/h
144 27-01-2021 11:55:00 2.6 C 5.5 g/m*3 0.29 C 8.1 km/h
145 27-01-2021 12:00:00 2.6 C 5.44 g/m*3 -0.14 C 9.7 km/h
146 27-01-2021 12:05:00 2.5 C 5.4 g/m*3 -0.26 C 9.7 km/h
147 27-01-2021 12:10:00 2.4 C 5.37 g/m*3 -0.37 C 9.7 km/h
148 27-01-2021 12:15:00 2.4 C 5.37 g/m*3 -0.37 C 9.7 km/h
149 27-01-2021 12:20:00 2.5 C 5.4 g/m*3 2.5 C 4.8 km/h
150 27-01-2021 12:25:00 2.5 C 5.4 g/m*3 -0.62 C 11.3 km/h
Sensor: Nr:Datum:Temp:Abs-Feuchte:Windchill:Wind:
Aussen-T/F 151 27-01-2021 12:30:00 2.6 C 5.44 g/m*3 -1.12 C 14.5 km/h
152 27-01-2021 12:35:00 2.6 C 5.44 g/m*3 -0.14 C 9.7 km/h
153 27-01-2021 12:40:00 2.7 C 5.48 g/m*3 -0.02 C 9.7 km/h
154 27-01-2021 12:45:00 2.7 C 5.48 g/m*3 -0.02 C 9.7 km/h
155 27-01-2021 12:50:00 2.8 C 5.51 g/m*3 1.05 C 6.4 km/h
156 27-01-2021 12:55:00 2.8 C 5.51 g/m*3 0.1 C 9.7 km/h
157 27-01-2021 13:00:00 2.7 C 5.48 g/m*3 2.7 C 3.2 km/h
158 27-01-2021 13:05:00 2.7 C 5.48 g/m*3 -0.38 C 11.3 km/h
159 27-01-2021 13:10:00 2.8 C 5.51 g/m*3 -0.88 C 14.5 km/h
160 27-01-2021 13:15:00 2.8 C 5.51 g/m*3 1.05 C 6.4 km/h
161 27-01-2021 13:20:00 2.8 C 5.51 g/m*3 0.1 C 9.7 km/h
162 27-01-2021 13:25:00 2.8 C 5.51 g/m*3 -0.26 C 11.3 km/h
163 27-01-2021 13:30:00 2.8 C 5.51 g/m*3 -0.26 C 11.3 km/h
164 27-01-2021 13:35:00 2.8 C 5.51 g/m*3 0.1 C 9.7 km/h
165 27-01-2021 13:40:00 2.8 C 5.51 g/m*3 1.05 C 6.4 km/h
166 27-01-2021 13:45:00 2.8 C 5.51 g/m*3 0.52 C 8.1 km/h
167 27-01-2021 13:50:00 2.8 C 5.57 g/m*3 2.8 C 4.8 km/h
168 27-01-2021 13:55:00 2.8 C 5.51 g/m*3 1.05 C 6.4 km/h
169 27-01-2021 14:00:00 2.8 C 5.51 g/m*3 1.05 C 6.4 km/h
170 27-01-2021 14:05:00 2.7 C 5.48 g/m*3 0.4 C 8.1 km/h
171 27-01-2021 14:10:00 2.7 C 5.48 g/m*3 -0.02 C 9.7 km/h
172 27-01-2021 14:15:00 2.7 C 5.48 g/m*3 0.94 C 6.4 km/h
173 27-01-2021 14:20:00 2.7 C 5.48 g/m*3 -0.02 C 9.7 km/h
174 27-01-2021 14:25:00 2.7 C 5.48 g/m*3 0.4 C 8.1 km/h
175 27-01-2021 14:30:00 2.8 C 5.51 g/m*3 0.1 C 9.7 km/h
Sensor: Nr:Datum:Temp:Abs-Feuchte:Windchill:Wind:
Aussen-T/F 176 27-01-2021 14:35:00 2.8 C 5.57 g/m*3 -0.59 C 12.9 km/h
177 27-01-2021 14:40:00 2.8 C 5.51 g/m*3 0.52 C 8.1 km/h
178 27-01-2021 14:45:00 2.8 C 5.51 g/m*3 0.52 C 8.1 km/h
179 27-01-2021 14:50:00 2.8 C 5.51 g/m*3 -0.59 C 12.9 km/h
180 27-01-2021 14:55:00 2.8 C 5.51 g/m*3 0.1 C 9.7 km/h
181 27-01-2021 15:00:00 2.8 C 5.51 g/m*3 0.1 C 9.7 km/h
182 27-01-2021 15:05:00 2.8 C 5.51 g/m*3 0.1 C 9.7 km/h
183 27-01-2021 15:10:00 2.8 C 5.57 g/m*3 -0.26 C 11.3 km/h
184 27-01-2021 15:15:00 2.7 C 5.48 g/m*3 -1 C 14.5 km/h
185 27-01-2021 15:20:00 2.7 C 5.54 g/m*3 -1.27 C 16.1 km/h
186 27-01-2021 15:25:00 2.8 C 5.57 g/m*3 -0.59 C 12.9 km/h
187 27-01-2021 15:30:00 2.8 C 5.57 g/m*3 -0.59 C 12.9 km/h
188 27-01-2021 15:35:00 2.8 C 5.57 g/m*3 -0.59 C 12.9 km/h
189 27-01-2021 15:40:00 2.8 C 5.57 g/m*3 -0.88 C 14.5 km/h
190 27-01-2021 15:45:00 2.9 C 5.61 g/m*3 -0.76 C 14.5 km/h
191 27-01-2021 15:50:00 2.9 C 5.61 g/m*3 -0.46 C 12.9 km/h
192 27-01-2021 15:55:00 2.9 C 5.61 g/m*3 -0.46 C 12.9 km/h
193 27-01-2021 16:00:00 2.9 C 5.61 g/m*3 -0.46 C 12.9 km/h
194 27-01-2021 16:05:00 2.9 C 5.61 g/m*3 -0.14 C 11.3 km/h
195 27-01-2021 16:10:00 2.9 C 5.61 g/m*3 -0.46 C 12.9 km/h
196 27-01-2021 16:15:00 2.9 C 5.61 g/m*3 -1.02 C 16.1 km/h
197 27-01-2021 16:20:00 2.9 C 5.61 g/m*3 -0.14 C 11.3 km/h
198 27-01-2021 16:25:00 2.9 C 5.61 g/m*3 -0.76 C 14.5 km/h
199 27-01-2021 16:30:00 2.9 C 5.61 g/m*3 -0.76 C 14.5 km/h
200 27-01-2021 16:35:00 2.9 C 5.61 g/m*3 -0.46 C 12.9 km/h
Sensor: Nr:Datum:Temp:Abs-Feuchte:Windchill:Wind:
Aussen-T/F 201 27-01-2021 16:40:00 2.8 C 5.57 g/m*3 -0.26 C 11.3 km/h
202 27-01-2021 16:45:00 2.8 C 5.57 g/m*3 -0.26 C 11.3 km/h
203 27-01-2021 16:50:00 2.8 C 5.57 g/m*3 -0.88 C 14.5 km/h
204 27-01-2021 16:55:00 2.8 C 5.57 g/m*3 -0.88 C 14.5 km/h
205 27-01-2021 17:00:00 2.9 C 5.61 g/m*3 -0.46 C 12.9 km/h
206 27-01-2021 17:05:00 2.9 C 5.61 g/m*3 -0.14 C 11.3 km/h
207 27-01-2021 17:10:00 2.8 C 5.57 g/m*3 -0.26 C 11.3 km/h
208 27-01-2021 17:15:00 2.9 C 5.61 g/m*3 -0.46 C 12.9 km/h
209 27-01-2021 17:20:00 2.9 C 5.61 g/m*3 -0.46 C 12.9 km/h
210 27-01-2021 17:25:00 2.9 C 5.61 g/m*3 -0.14 C 11.3 km/h
211 27-01-2021 17:30:00 2.9 C 5.61 g/m*3 -1.02 C 16.1 km/h
212 27-01-2021 17:35:00 2.9 C 5.61 g/m*3 0.22 C 9.7 km/h
213 27-01-2021 17:40:00 2.9 C 5.61 g/m*3 0.22 C 9.7 km/h
214 27-01-2021 17:45:00 2.9 C 5.61 g/m*3 -0.14 C 11.3 km/h
215 27-01-2021 17:50:00 2.9 C 5.61 g/m*3 -0.46 C 12.9 km/h
216 27-01-2021 17:55:00 2.9 C 5.61 g/m*3 0.64 C 8.1 km/h
217 27-01-2021 18:00:00 2.9 C 5.61 g/m*3 0.64 C 8.1 km/h
218 27-01-2021 18:05:00 2.9 C 5.61 g/m*3 2.9 C 4.8 km/h
219 27-01-2021 18:10:00 2.9 C 5.61 g/m*3 0.22 C 9.7 km/h
220 27-01-2021 18:15:00 2.9 C 5.61 g/m*3 -0.46 C 12.9 km/h
221 27-01-2021 18:20:00 2.9 C 5.61 g/m*3 -0.14 C 11.3 km/h
222 27-01-2021 18:25:00 2.9 C 5.61 g/m*3 -0.46 C 12.9 km/h
223 27-01-2021 18:30:00 2.9 C 5.61 g/m*3 0.22 C 9.7 km/h
224 27-01-2021 18:35:00 2.9 C 5.61 g/m*3 -0.46 C 12.9 km/h
225 27-01-2021 18:40:00 2.9 C 5.61 g/m*3 -1.26 C 17.7 km/h
Sensor: Nr:Datum:Temp:Abs-Feuchte:Windchill:Wind:
Aussen-T/F 226 27-01-2021 18:45:00 3 C 5.65 g/m*3 -0.02 C 11.3 km/h
227 27-01-2021 18:50:00 3 C 5.65 g/m*3 -0.34 C 12.9 km/h
228 27-01-2021 18:55:00 3 C 5.65 g/m*3 -0.02 C 11.3 km/h
229 27-01-2021 19:00:00 3 C 5.65 g/m*3 0.34 C 9.7 km/h
230 27-01-2021 19:05:00 3 C 5.65 g/m*3 -0.02 C 11.3 km/h
231 27-01-2021 19:10:00 3 C 5.65 g/m*3 -0.02 C 11.3 km/h
232 27-01-2021 19:15:00 3.1 C 5.69 g/m*3 -0.22 C 12.9 km/h
233 27-01-2021 19:20:00 3 C 5.65 g/m*3 -0.34 C 12.9 km/h
234 27-01-2021 19:25:00 3.1 C 5.69 g/m*3 0.46 C 9.7 km/h
235 27-01-2021 19:30:00 3.1 C 5.69 g/m*3 0.1 C 11.3 km/h
236 27-01-2021 19:35:00 3.1 C 5.69 g/m*3 -0.51 C 14.5 km/h
237 27-01-2021 19:40:00 3.1 C 5.69 g/m*3 -0.77 C 16.1 km/h
238 27-01-2021 19:45:00 3.1 C 5.69 g/m*3 0.1 C 11.3 km/h
239 27-01-2021 19:50:00 3.1 C 5.69 g/m*3 -0.22 C 12.9 km/h
240 27-01-2021 19:55:00 3.1 C 5.69 g/m*3 0.87 C 8.1 km/h
241 27-01-2021 20:00:00 3.1 C 5.69 g/m*3 0.1 C 11.3 km/h
242 27-01-2021 20:05:00 3.1 C 5.69 g/m*3 0.46 C 9.7 km/h
243 27-01-2021 20:10:00 3.2 C 5.72 g/m*3 -0.1 C 12.9 km/h
244 27-01-2021 20:15:00 3.2 C 5.72 g/m*3 0.99 C 8.1 km/h
245 27-01-2021 20:20:00 3.2 C 5.72 g/m*3 -0.1 C 12.9 km/h
246 27-01-2021 20:25:00 3.2 C 5.72 g/m*3 0.22 C 11.3 km/h
247 27-01-2021 20:30:00 3.2 C 5.72 g/m*3 0.22 C 11.3 km/h
248 27-01-2021 20:35:00 3.3 C 5.76 g/m*3 0.02 C 12.9 km/h
249 27-01-2021 20:40:00 3.3 C 5.76 g/m*3 0.34 C 11.3 km/h
250 27-01-2021 20:45:00 3.3 C 5.7 g/m*3 0.02 C 12.9 km/h
Sensor: Nr:Datum:Temp:Abs-Feuchte:Windchill:Wind:
Aussen-T/F 251 27-01-2021 20:50:00 3.3 C 5.7 g/m*3 0.02 C 12.9 km/h
252 27-01-2021 20:55:00 3.3 C 5.7 g/m*3 0.02 C 12.9 km/h
253 27-01-2021 21:00:00 3.3 C 5.7 g/m*3 0.34 C 11.3 km/h
254 27-01-2021 21:05:00 3.4 C 5.74 g/m*3 0.14 C 12.9 km/h
255 27-01-2021 21:10:00 3.4 C 5.74 g/m*3 0.14 C 12.9 km/h
256 27-01-2021 21:15:00 3.4 C 5.74 g/m*3 0.14 C 12.9 km/h
257 27-01-2021 21:20:00 3.4 C 5.74 g/m*3 -0.14 C 14.5 km/h
258 27-01-2021 21:25:00 3.4 C 5.74 g/m*3 0.82 C 9.7 km/h
259 27-01-2021 21:30:00 3.4 C 5.74 g/m*3 0.46 C 11.3 km/h
260 27-01-2021 21:35:00 3.3 C 5.7 g/m*3 1.11 C 8.1 km/h
261 27-01-2021 21:40:00 3.3 C 5.7 g/m*3 0.34 C 11.3 km/h
262 27-01-2021 21:45:00 3.4 C 5.74 g/m*3 0.46 C 11.3 km/h
263 27-01-2021 21:50:00 3.4 C 5.74 g/m*3 0.46 C 11.3 km/h
264 27-01-2021 21:55:00 3.4 C 5.74 g/m*3 0.82 C 9.7 km/h
265 27-01-2021 22:00:00 3.4 C 5.74 g/m*3 0.46 C 11.3 km/h
266 27-01-2021 22:05:00 3.4 C 5.74 g/m*3 0.46 C 11.3 km/h
267 27-01-2021 22:10:00 3.5 C 5.78 g/m*3 0.58 C 11.3 km/h
268 27-01-2021 22:15:00 3.6 C 5.82 g/m*3 0.39 C 12.9 km/h
269 27-01-2021 22:20:00 3.6 C 5.82 g/m*3 1.06 C 9.7 km/h
270 27-01-2021 22:25:00 3.6 C 5.82 g/m*3 1.06 C 9.7 km/h
271 27-01-2021 22:30:00 3.6 C 5.82 g/m*3 0.39 C 12.9 km/h
272 27-01-2021 22:35:00 3.7 C 5.86 g/m*3 1.58 C 8.1 km/h
273 27-01-2021 22:40:00 3.7 C 5.86 g/m*3 0.82 C 11.3 km/h
274 27-01-2021 22:45:00 3.7 C 5.86 g/m*3 0.51 C 12.9 km/h
275 27-01-2021 22:50:00 3.7 C 5.86 g/m*3 1.18 C 9.7 km/h
Sensor: Nr:Datum:Temp:Abs-Feuchte:Windchill:Wind:
Aussen-T/F 276 27-01-2021 22:55:00 3.7 C 5.86 g/m*3 1.18 C 9.7 km/h
277 27-01-2021 23:00:00 3.7 C 5.86 g/m*3 1.18 C 9.7 km/h
278 27-01-2021 23:05:00 3.7 C 5.86 g/m*3 1.58 C 8.1 km/h
279 27-01-2021 23:10:00 3.7 C 5.86 g/m*3 -0.03 C 16.1 km/h
280 27-01-2021 23:15:00 3.8 C 5.9 g/m*3 0.63 C 12.9 km/h
281 27-01-2021 23:20:00 3.8 C 5.9 g/m*3 0.94 C 11.3 km/h
282 27-01-2021 23:25:00 3.8 C 5.9 g/m*3 0.35 C 14.5 km/h
283 27-01-2021 23:30:00 3.8 C 5.9 g/m*3 0.94 C 11.3 km/h
284 27-01-2021 23:35:00 3.8 C 5.9 g/m*3 0.63 C 12.9 km/h
285 27-01-2021 23:40:00 3.8 C 5.9 g/m*3 0.94 C 11.3 km/h
286 27-01-2021 23:45:00 3.8 C 5.9 g/m*3 0.94 C 11.3 km/h
287 27-01-2021 23:50:00 3.8 C 5.9 g/m*3 0.94 C 11.3 km/h
288 27-01-2021 23:55:00 3.8 C 5.9 g/m*3 2.21 C 6.4 km/h

Legende:
   Min
   Max


Maximal/Minimal-Werte vom 27.01.2021 - 27.01.2021

Sensor Min Max Avg
Temp
(Aussen-T/F)
0.9 °C
27-01-2021  02:35:00
3.8 °C
27-01-2021  23:15:00
2.29 °C
Abs-Feuchte
(Aussen-T/F)
4.59 g/m*3
27-01-2021  02:35:00
5.9 g/m*3
27-01-2021  23:15:00
5.25 g/m*3
Windchill
(Aussen-T/F)
-2.41 C
27-01-2021  04:30:00
2.9 C
27-01-2021  18:05:00
0.66 C

Die Daten stammen von einer Davis Vantage Pro 2 Wetter-Station und werden unter Linux mit der Software wview2wettercgi und aufbereitet. Alle Angaben erfolgen ohne Gewähr für ihre Vollständigkeit oder Richtigkeit.
Kontakt: Rainer Krienke krienke@uni-koblenz.de . Meine Webseiten an der Uni Koblenz oder privat.
Version: $Revision: 0.78 $